TimeCDT,TemperatureF,Dew PointF,Humidity,Sea Level PressureIn,VisibilityMPH,Wind Direction,Wind SpeedMPH,Gust SpeedMPH,PrecipitationIn,Events,Conditions,WindDirDegrees,DateUTC
12:15 AM,77.9,74.1,88,29.98,10.0,Calm,Calm,-,N/A,,Scattered Clouds,0,2013-08-16 05:15:00
12:55 AM,77.0,76.5,98,29.97,10.0,Calm,Calm,-,N/A,,Clear,0,2013-08-16 05:55:00
1:15 AM,77.0,77.0,100,29.96,10.0,Calm,Calm,-,N/A,,Clear,0,2013-08-16 06:15:00
1:35 AM,76.8,76.8,100,29.96,10.0,Calm,Calm,-,N/A,,Clear,0,2013-08-16 06:35:00
1:55 AM,76.6,76.6,100,29.95,10.0,ENE,3.5,-,N/A,,Clear,60,2013-08-16 06:55:00
2:15 AM,76.8,76.8,100,29.95,10.0,Calm,Calm,-,N/A,,Clear,0,2013-08-16 07:15:00
2:35 AM,77.2,77.2,100,29.94,10.0,Calm,Calm,-,N/A,,Clear,0,2013-08-16 07:35:00
2:55 AM,77.0,77.0,100,29.94,10.0,Calm,Calm,-,N/A,,Scattered Clouds,0,2013-08-16 07:55:00
3:15 AM,77.0,77.0,100,29.95,10.0,Calm,Calm,-,N/A,,Scattered Clouds,0,2013-08-16 08:15:00
3:35 AM,77.0,77.0,100,29.95,10.0,Calm,Calm,-,N/A,,Mostly Cloudy,0,2013-08-16 08:35:00
3:55 AM,77.2,77.2,100,29.95,10.0,Calm,Calm,-,N/A,,Mostly Cloudy,0,2013-08-16 08:55:00
4:15 AM,77.7,77.7,100,29.95,10.0,Calm,Calm,-,N/A,,Mostly Cloudy,0,2013-08-16 09:15:00
4:35 AM,78.1,78.1,100,29.95,10.0,Calm,Calm,-,N/A,,Scattered Clouds,0,2013-08-16 09:35:00
4:55 AM,77.7,77.7,100,29.95,10.0,Calm,Calm,-,N/A,,Scattered Clouds,0,2013-08-16 09:55:00
5:15 AM,77.0,77.0,100,29.95,10.0,North,4.6,-,N/A,,Scattered Clouds,360,2013-08-16 10:15:00
5:35 AM,77.0,77.0,100,29.95,10.0,Calm,Calm,-,N/A,,Mostly Cloudy,0,2013-08-16 10:35:00
5:55 AM,77.0,77.0,100,29.96,10.0,Calm,Calm,-,N/A,,Scattered Clouds,0,2013-08-16 10:55:00
6:15 AM,77.0,77.0,100,29.96,10.0,Calm,Calm,-,N/A,,Clear,0,2013-08-16 11:15:00
6:35 AM,77.0,77.0,100,29.96,10.0,Calm,Calm,-,N/A,,Scattered Clouds,0,2013-08-16 11:35:00
6:55 AM,76.8,76.8,100,29.96,10.0,Calm,Calm,-,N/A,,Scattered Clouds,0,2013-08-16 11:55:00
7:15 AM,76.8,76.8,100,29.97,10.0,Calm,Calm,-,N/A,,Scattered Clouds,0,2013-08-16 12:15:00
7:35 AM,77.4,77.4,100,29.97,10.0,Calm,Calm,-,N/A,,Clear,0,2013-08-16 12:35:00
7:55 AM,78.1,78.1,100,29.97,10.0,Calm,Calm,-,N/A,,Clear,0,2013-08-16 12:55:00
8:15 AM,78.8,78.8,100,29.97,10.0,Calm,Calm,-,N/A,,Clear,0,2013-08-16 13:15:00
8:35 AM,80.1,73.4,80,29.98,10.0,Calm,Calm,-,N/A,,Clear,0,2013-08-16 13:35:00
8:55 AM,81.3,74.8,81,29.99,10.0,NNE,4.6,-,N/A,,Clear,20,2013-08-16 13:55:00
9:15 AM,82.2,74.5,77,29.99,10.0,North,3.5,-,N/A,,Clear,360,2013-08-16 14:15:00
9:35 AM,83.5,74.5,74,29.99,10.0,North,5.8,-,N/A,,Scattered Clouds,360,2013-08-16 14:35:00
9:55 AM,84.0,74.3,72,29.99,10.0,North,4.6,-,N/A,,Scattered Clouds,350,2013-08-16 14:55:00
10:15 AM,85.3,73.0,67,30.00,10.0,North,4.6,-,N/A,,Scattered Clouds,10,2013-08-16 15:15:00
10:35 AM,89.1,71.6,56,29.99,10.0,NNW,8.1,-,N/A,,Scattered Clouds,330,2013-08-16 15:35:00
10:55 AM,90.9,70.7,51,29.99,10.0,NNE,8.1,-,N/A,,Clear,20,2013-08-16 15:55:00
11:15 AM,91.6,70.3,50,29.98,10.0,NNE,8.1,-,N/A,,Clear,30,2013-08-16 16:15:00
11:35 AM,92.1,69.6,48,29.98,10.0,NNW,6.9,-,N/A,,Clear,330,2013-08-16 16:35:00
11:55 AM,92.3,69.3,47,29.98,10.0,NE,9.2,-,N/A,,Scattered Clouds,40,2013-08-16 16:55:00
12:15 PM,93.2,69.1,45,29.97,10.0,North,4.6,-,N/A,,Scattered Clouds,10,2013-08-16 17:15:00
12:35 PM,92.8,69.1,46,29.96,10.0,Calm,Calm,-,N/A,,Scattered Clouds,0,2013-08-16 17:35:00
12:55 PM,92.5,68.9,46,29.96,10.0,NE,4.6,-,N/A,,Mostly Cloudy,40,2013-08-16 17:55:00
1:15 PM,93.2,68.7,45,29.95,10.0,WNW,6.9,-,N/A,,Mostly Cloudy,290,2013-08-16 18:15:00
1:35 PM,94.3,68.7,43,29.94,10.0,WNW,8.1,-,N/A,,Scattered Clouds,300,2013-08-16 18:35:00
1:55 PM,95.0,68.5,42,29.93,10.0,North,4.6,-,N/A,,Mostly Cloudy,360,2013-08-16 18:55:00
2:15 PM,95.2,68.2,41,29.93,10.0,ENE,5.8,-,N/A,,Overcast,60,2013-08-16 19:15:00
2:35 PM,95.2,68.4,41,29.93,10.0,NE,8.1,-,N/A,,Mostly Cloudy,50,2013-08-16 19:35:00
2:55 PM,95.4,68.0,41,29.92,10.0,NE,5.8,-,N/A,,Mostly Cloudy,50,2013-08-16 19:55:00
3:15 PM,94.8,71.6,47,29.91,10.0,SE,13.8,20.7,N/A,,Mostly Cloudy,140,2013-08-16 20:15:00
3:35 PM,93.7,74.5,53,29.91,10.0,SE,13.8,19.6,N/A,,Mostly Cloudy,140,2013-08-16 20:35:00
3:55 PM,93.9,74.3,53,29.90,10.0,SE,12.7,18.4,N/A,,Scattered Clouds,140,2013-08-16 20:55:00
4:15 PM,94.3,74.3,52,29.89,10.0,SE,15.0,19.6,N/A,,Scattered Clouds,140,2013-08-16 21:15:00
4:35 PM,92.8,74.3,55,29.90,10.0,SE,11.5,-,N/A,,Scattered Clouds,140,2013-08-16 21:35:00
4:55 PM,92.7,74.5,55,29.89,10.0,SE,11.5,-,N/A,,Scattered Clouds,140,2013-08-16 21:55:00
5:15 PM,92.3,74.5,56,29.89,10.0,ESE,11.5,20.7,N/A,,Scattered Clouds,120,2013-08-16 22:15:00
5:35 PM,90.9,74.5,58,29.89,10.0,ESE,13.8,18.4,N/A,,Clear,120,2013-08-16 22:35:00
5:55 PM,90.0,74.3,60,29.88,10.0,ESE,12.7,-,N/A,,Clear,120,2013-08-16 22:55:00
6:15 PM,89.8,74.7,61,29.88,10.0,ESE,15.0,-,N/A,,Clear,120,2013-08-16 23:15:00
6:35 PM,89.6,74.3,61,29.89,10.0,SE,13.8,17.3,N/A,,Clear,130,2013-08-16 23:35:00
6:55 PM,88.7,73.4,60,29.86,10.0,SE,15.0,-,N/A,,Clear,130,2013-08-16 23:55:00
7:15 PM,87.6,73.2,62,29.90,10.0,East,11.5,-,N/A,,Scattered Clouds,100,2013-08-17 00:15:00
7:35 PM,82.4,71.6,70,29.95,-9999.0,NNE,26.5,-,N/A,,Unknown,20,2013-08-17 00:35:00
7:55 PM,73.4,73.4,100,29.93,-9999.0,NE,23.0,29.9,N/A,,Unknown,40,2013-08-17 00:55:00
8:15 PM,-9999,-9999,N/A,29.98,4.0,ENE,10.4,26.5,0.01,Rain,Rain,60,2013-08-17 01:15:00
8:35 PM,-9999,-9999,N/A,29.96,10.0,ENE,11.5,-,0.02,Rain,Light Rain,60,2013-08-17 01:35:00
8:55 PM,-9999,-9999,N/A,29.96,10.0,ESE,5.8,-,0.03,,Light Drizzle,120,2013-08-17 01:55:00
9:15 PM,-9999,-9999,N/A,29.95,10.0,SSE,4.6,-,N/A,,Scattered Clouds,150,2013-08-17 02:15:00
9:35 PM,-9999,-9999,N/A,29.94,10.0,South,4.6,-,0.01,,Scattered Clouds,190,2013-08-17 02:35:00
9:55 PM,-9999,-9999,N/A,29.95,10.0,SSW,4.6,-,0.01,,Clear,210,2013-08-17 02:55:00
10:15 PM,-9999,-9999,N/A,29.96,7.0,Calm,Calm,-,N/A,,Clear,0,2013-08-17 03:15:00
10:35 PM,-9999,-9999,N/A,29.97,10.0,Calm,Calm,-,0.01,,Clear,0,2013-08-17 03:35:00
10:55 PM,-9999,-9999,N/A,29.98,10.0,NW,4.6,-,0.01,,Clear,310,2013-08-17 03:55:00
11:15 PM,-9999,-9999,N/A,29.98,10.0,NW,3.5,-,N/A,,Clear,320,2013-08-17 04:15:00
11:35 PM,-9999,-9999,N/A,29.98,7.0,North,3.5,-,N/A,,Clear,350,2013-08-17 04:35:00
11:55 PM,-9999,-9999,N/A,29.97,5.0,North,4.6,-,0.01,,Haze,360,2013-08-17 04:55:00